Location: Krakow
(50.0830°N, 19.9170°E)
Time: 18:48:13
(UTC+01:00)

SR - Pass Details

Date: 10 February 2023
Orbit: 582 x 867 km, 66.7° (Epoch: 20 March)

Event Time Altitude Azimuth Distance (km) Brightness Sun altitude
Rises 13:08:55 0° 221° (SW) 3,174 ? 23.5°
Reaches altitude 10° 13:11:23 10° 224° (SW) 2,207 ? 23.4°
Maximum altitude 13:16:22 71° 308° (NW) 719 ? 23.1°
Drops below altitude 10° 13:20:59 10° 34° (NNE) 2,043 ? 22.8°
Sets 13:23:12 0° 36° (NE) 2,920 ? 22.7°
